Miscellaneous Local Product
Issued by NWS Hastings, NE

Home | Current Version | Previous Version | Text Only | Print | Product List | Glossary Off
Versions: 1 2 3 4 5 6 7 8 9 10 11 12 13 14 15 16 17 18 19 20 21 22 23 24 25 26 27 28 29 30 31 32 33 34 35 36 37 38 39 40 41 42 43 44 45 46 47 48 49 50

000
AXUS43 KGID 221202
MISGRI

GID CWA HOURLY WEATHER ROUNDUP
NATIONAL WEATHER SERVICE HASTINGS NE
700 AM CDT FRI JUL 22 2016

NOTE: "FAIR" INDICATES FEW OR NO CLOUDS BELOW 12,000 FEET WITH NO
SIGNIFICANT WEATHER AND/OR OBSTRUCTIONS TO VISIBILITY.

...SOUTH CENTRAL NEBRASKA...

CITY           SKY/WX    TMP DP  RH WIND       PRES   REMARKS
GRAND ISLAND   CLEAR     73  68  84 SW5       29.95R
HASTINGS       CLEAR     75  67  76 CALM      29.97R
KEARNEY        CLEAR     73  70  88 NW3       29.97R
ORD            CLEAR     74  71  91 NW5       29.96R
YORK           CLEAR     72  68  88 CALM      29.94R
AURORA         CLEAR     74  70  86 CALM      29.95R
LEXINGTON      CLEAR     71  69  93 NW5       29.99S FOG
HOLDREGE       CLEAR     73  70  92 CALM      29.98R
HEBRON         CLEAR     78  67  68 S7        29.94R

...NEBRASKA PANHANDLE...

CITY           SKY/WX    TMP DP  RH WIND       PRES   REMARKS
CHADRON        CLOUDY    70  63  78 S6        30.09R
ALLIANCE       CLOUDY    64  61  90 CALM      30.12R
SCOTTSBLUFF    CLOUDY    70  65  84 MISG      30.12R
SIDNEY         CLOUDY    69  62  78 CALM      30.15R

...WESTERN AND NORTH CENTRAL NEBRASKA...

CITY           SKY/WX    TMP DP  RH WIND       PRES   REMARKS
VALENTINE      CLEAR     67  65  93 NW3       30.04R FOG
AINSWORTH      CLOUDY    71  71  99 NW3       30.04R
ONEILL         FOG       75  73  95 CALM      29.97R VSB<1/4
BROKEN BOW     CLEAR     71  70  96 CALM      30.00R
IMPERIAL       PTCLDY    69  65  86 CALM      30.06R
NORTH PLATTE   CLEAR     69  68  96 SE3       30.03R
MCCOOK         PTCLDY    73  69  87 N6        29.99R

...EASTERN NEBRASKA...

CITY           SKY/WX    TMP DP  RH WIND       PRES   REMARKS
NORFOLK        CLEAR     75  72  90 CALM      29.92S
SO SIOUX CITY  CLEAR     80  77  90 E6        29.91R
TEKAMAH        CLOUDY    78  75  90 SE7       29.91S
COLUMBUS       CLEAR     73  64  73 SE3       29.93R
ALBION         CLEAR     73  70  92 NW6       29.95R FOG
OMAHA EPPLEY   PTCLDY    81  73  76 SE7       29.92R
OFFUTT AFB     CLEAR     76  74  94 E6        29.92R
MILLARD        CLEAR     78  74  86 SE3       29.92R
LINCOLN        CLEAR     78  71  79 S6        29.92S
NEBRASKA CITY  CLEAR     77  71  82 SW8       29.94S
BEATRICE       CLEAR     79  69  71 S9        29.94S
FALLS CITY     CLEAR     79  72  79 S6        29.95R

...NORTHERN KANSAS...

CITY           SKY/WX    TMP DP  RH WIND       PRES   REMARKS
GOODLAND       CLOUDY    73  60  63 NW5       30.07R
HILL CITY      CLOUDY    76  63  64 SW5       29.97R
NORTON         SUNNY     70  61  73 CALM      29.96S
SMITH CENTER   CLEAR     72  64  78 SE6       29.96S
BELOIT         CLEAR     77  66  69 SE6       29.94S
HAYS           CLEAR     72  59  64 SW6       29.98R
RUSSELL        CLEAR     77  65  66 S18       29.95S
CONCORDIA      CLEAR     78  66  66 S12       29.95R
SALINA         PTCLDY    81  69  67 S14       29.96S
TOPEKA         CLEAR     81  71  71 SW5       29.99R



USA.gov is the U.S. government's official web portal to all federal, state and local government web resources and services.